{"data":{"norad_id":37748,"epoch":"2026-05-25T03:15:18.125280Z","epoch_age_seconds":67260,"freshness":"FRESH","line1":"1 37748U 11035A   26145.13562645 -.00000104  00000+0  00000+0 0  9993","line2":"2 37748   1.2693  83.3228 0002889 334.3588 130.8779  1.00272546 54369","mean_motion":1.00272546,"eccentricity":0.0002889,"inclination_deg":1.2693,"raan_deg":83.3228,"arg_perigee_deg":334.3588,"mean_anomaly_deg":130.8779,"bstar":0,"rev_number":5436,"period_min":1436.0860050367,"perigee_km":35774.200297184,"apogee_km":35798.562956046,"semimajor_km":42164.518626615,"source":"CELESTRAK","updated_at":"2026-05-25T13:38:14.503918Z"}}